Location: Newark
(37.8333°N, 119.5000°W)
Time: 16:23:44
(UTC+00:00)

Tiros 1 despin weight - Pass Details

Date: 19 August 2019
Orbit: 594 x 642 km, 48.2° (Epoch: 17 September)

Event Time Altitude Azimuth Distance (km) Brightness Sun altitude
Rises 12:38:02 0° 303° (WNW) 2,885 ? -8.0°
Reaches altitude 10° 12:40:37 10° 316° (NW) 1,987 ? -7.6°
Maximum altitude 12:44:33 27° 15° (NNE) 1,196 ? -6.8°
Drops below altitude 10° 12:48:31 10° 74° (ENE) 2,009 ? -6.1°
Sets 12:51:08 0° 86° (E) 2,923 ? -5.6°
